#timestamp,LO_Frequency,Hit,StdDev 
1622422815.6,286046999.7,N
1622422835.5,286047002.5,N
1622422855.3,286047002.2,N
1622422875.1,286047002.0,N
1622422895.9,286047002.2,N
1622422915.7,286047002.4,N
1622422935.5,286046999.9,N
1622422955.4,286046999.9,N
1622422975.2,286047002.0,N
1622422995.1,286047001.3,N
1622422996.0,286047001.3,N
1622423015.8,286047002.1,N
1622423035.6,286047000.0,N
1622423055.5,286047001.7,N
1622423075.3,286047004.1,Y
1622423095.2,286047000.1,P
1622423115.9,286046999.8,N
1622423135.7,286047002.6,P
1622423155.6,286047002.1,N
1622423175.4,286047004.3,Y
1622423195.2,286047003.2,P
1622423215.1,286047002.1,N
1622423216.0,286047002.1,N
1622423235.8,286046999.9,N
1622423255.7,286047000.9,N
1622423275.5,286046999.8,N
1622423295.3,286047001.2,N
1622423315.2,286046998.7,N
1622423335.0,286046999.3,N
1622423335.9,286046999.3,N
1622423355.8,286046999.1,N
1622423375.6,286046997.0,N
1622423395.4,286046997.3,N
1622423415.3,286046997.2,N
1622423435.1,286046999.0,N
1622423436.0,286046999.0,N
1622423455.8,286046998.1,N
1622423475.7,286047000.5,N
1622423495.5,286046998.5,N
1622423515.4,286046998.4,N
1622423535.2,286046999.0,N
1622423555.0,286047001.1,N
1622423555.9,286047001.1,N
1622423575.8,286047000.1,N
1622423595.6,286047000.0,N
1622423615.4,286047000.5,N
1622423635.3,286047001.0,N
1622423655.1,286046998.2,N
1622423675.9,286047000.9,N
1622423695.7,286047000.2,N
1622423715.5,286047000.9,N
1622423735.4,286047000.9,N
1622423755.2,286046999.8,N
1622423775.0,286046999.8,N
1622423775.9,286046999.8,N
1622423795.8,286047000.6,N
1622423815.6,286047002.4,N
1622423835.5,286047000.3,N
1622423855.3,286046998.2,N
1622423875.1,286047000.0,N
1622423895.9,286047002.6,N
1622423915.7,286047001.7,N
1622423935.5,286046999.7,N
1622423955.4,286047002.7,N
1622423975.2,286047000.8,N
1622423995.1,286046998.2,N
1622423996.0,286046998.2,N
1622424015.8,286046996.5,N
1622424035.6,286046999.4,N
1622424055.5,286046998.1,N
1622424075.3,286047002.7,N
1622424095.1,286047002.8,N
1622424115.9,286047002.3,N
1622424135.7,286047001.9,N
1622424155.6,286047000.5,N
1622424175.4,286047000.9,N
1622424195.2,286047001.8,N
1622424215.1,286047004.3,N
1622424216.0,286047004.3,N
1622424235.8,286047002.1,N
1622424255.6,286047002.3,N
1622424275.5,286047002.5,N
1622424295.3,286047001.9,N
1622424315.2,286047002.0,N
1622424335.9,286047000.1,N
1622424355.7,286047002.2,N
1622424375.6,286047001.9,N
1622424395.4,286047004.4,N
1622424415.2,286047002.8,N
1622424435.1,286047000.2,N
1622424436.0,286047000.2,N
1622424455.8,286047002.2,N
1622424475.7,286047001.6,N
1622424495.5,286047001.8,N
1622424515.3,286047004.4,N
1622424535.2,286047001.7,N
1622424555.0,286047003.7,N
1622424555.9,286047003.7,N
1622424575.8,286047003.2,N
1622424595.6,286047001.3,N
1622424615.4,286047003.8,Y
1622424635.3,286047002.4,P
1622424655.1,286046999.7,P
1622424675.8,286046999.7,N
1622424695.7,286047000.8,N
1622424715.5,286047000.4,N
1622424735.4,286047000.3,N
1622424755.2,286047000.6,N
1622424775.0,286046999.7,N
1622424775.9,286046999.7,N
1622424795.8,286046999.9,N
1622424815.6,286047002.7,N
1622424835.4,286047000.0,N
1622424855.3,286046998.5,N
1622424875.1,286046999.5,N
1622424895.9,286046998.8,N
1622424915.7,286046996.9,N
1622424935.5,286046999.6,N
1622424955.4,286046996.7,N
1622424975.2,286046998.7,N
1622424995.0,286046998.4,N
1622424995.9,286046998.4,N
1622425015.8,286046998.8,N
1622425035.6,286046996.5,N
1622425055.5,286046997.5,N
1622425075.3,286046997.7,N
1622425095.1,286046997.9,N
1622425115.9,286046996.7,N
1622425135.7,286046999.1,N
1622425155.6,286046998.8,N
1622425175.4,286046998.7,N
1622425195.2,286046998.2,N
1622425215.1,286046996.7,N
1622425216.0,286046996.7,N
1622425235.8,286046997.3,N
1622425255.7,286046995.3,Y
1622425275.5,286046997.7,P
1622425295.3,286046997.2,P
1622425315.2,286046999.2,N
1622425335.0,286046998.4,N
1622425335.9,286046998.4,N
1622425355.8,286046998.7,N
1622425375.6,286046999.0,N
1622425395.4,286046998.7,N
1622425415.3,286046997.2,Y
1622425435.1,286046998.5,P
1622425455.8,286047000.2,P
1622425475.7,286047000.4,N
1622425495.5,286047000.1,N
1622425515.4,286046999.8,N
1622425535.2,286047000.4,N
1622425555.0,286047001.1,N
1622425555.9,286047001.1,N
1622425575.8,286047000.8,N
1622425595.6,286046998.3,N
1622425615.5,286047001.2,N
1622425635.3,286047000.3,N
1622425655.1,286047000.6,N
1622425675.9,286047000.1,N
1622425695.7,286047000.9,N
1622425715.5,286047001.1,N
1622425735.4,286047000.7,N
1622425755.2,286046999.3,N
1622425775.1,286046996.7,Y
1622425776.0,286046996.7,P
1622425795.8,286046997.9,N
1622425815.6,286046997.7,N
1622425835.5,286046997.1,N
1622425855.3,286046999.5,N
1622425875.1,286046996.7,N
1622425895.9,286046999.6,N
1622425915.7,286046997.2,N
1622425935.6,286046997.5,N
1622425955.4,286046997.7,N
1622425975.2,286046995.1,Y
1622425995.1,286046997.6,P
1622425996.0,286046997.6,P
1622426015.8,286046996.7,P
1622426035.7,286046998.5,Y
1622426055.5,286047004.2,P
1622426075.3,286047003.4,N
1622426095.2,286047003.4,N
1622426115.0,286047005.7,N
1622426115.9,286047005.7,N
1622426135.7,286047004.3,N
1622426155.6,286047001.9,N
1622426175.4,286047002.0,N
1622426195.3,286047001.6,N
1622426215.1,286047002.4,N
1622426216.0,286047002.4,N
1622426235.8,286047001.8,N
1622426255.7,286047001.3,N
1622426275.5,286047005.0,N
1622426295.3,286047004.6,N
1622426315.2,286047007.0,Y
1622426335.0,286047003.4,P
1622426335.9,286047003.4,P
1622426355.8,286047004.4,P
1622426375.6,286047002.1,Y
1622426395.4,286046997.1,P
